Tracking 35275 objects as of 8-Sep-2026
HD Live streaming from Space Station
objects crossing your sky now

QIANFAN-58

Track QIANFAN-58 now!
10-day predictions
QIANFAN-58 is classified as:


NORAD ID: 62788
Int'l Code: 2025-016D
Launch date: January 23, 2025
Source: People's Republic of China (PRC)
Launch site: Taiyaun Space Center, China (TSC)
Your satellite tracking list
Your tracking list is empty




NASA's NSSDC Master Catalog

Two Line Element Set (TLE):
1 62788U 25016D   26251.23753812  .00000063  00000-0  79026-4 0  9999
2 62788  88.9640  74.9882 0012053 287.3717  72.6116 13.51019437 83639
Source of the keplerian elements: AFSPC